When you browse on this site, cookies collect data to enhance your experience and personalize the content and advertising you see.
Visit our Privacy Policy to learn more. By continuing to use the site, you agree to this use of cookies and data.
  • en Suisse
  • Liste des pays
  • À 7 jours
  • Température de l'eau
  • Carte satellitaire
  • Carte météo
  • Widgets météo
  • user-avatar
    Se connecter

    Météo par heure à Chifirovka

    Ce jour, 22 Juillet, Lundi

    Heure Température Précipitation Vent Pression Humidité
    00:00 +16°C° 0 mm 1 m/s 747 mmHg 88%
    01:00 +16°C° 0 mm 1 m/s 747 mmHg 89%
    02:00 +15°C° 0 mm 1 m/s 747 mmHg 89%
    03:00 +15°C° 0 mm 1 m/s 747 mmHg 90%
    04:00 +15°C° 0 mm 1 m/s 747 mmHg 90%
    05:00 +16°C° 0 mm 1 m/s 747 mmHg 90%
    06:00 +16°C° 0 mm 1 m/s 747 mmHg 90%
    07:00 +19°C° 0 mm 1 m/s 747 mmHg 85%
    08:00 +20°C° 0 mm 1 m/s 747 mmHg 81%
    09:00 +22°C° 0 mm 1 m/s 747 mmHg 75%
    10:00 +23°C° 0.8 mm 1 m/s 747 mmHg 73%
    11:00 +23°C° 0.8 mm 2 m/s 746 mmHg 70%
    12:00 +24°C° 0.8 mm 2 m/s 746 mmHg 68%
    13:00 +24°C° 0.2 mm 2 m/s 746 mmHg 64%
    14:00 +25°C° 0.2 mm 2 m/s 746 mmHg 60%
    15:00 +26°C° 0.2 mm 1 m/s 745 mmHg 57%
    16:00 +25°C° 0.1 mm 1 m/s 745 mmHg 60%
    17:00 +25°C° 0.1 mm 1 m/s 745 mmHg 63%
    18:00 +25°C° 0.1 mm 1 m/s 745 mmHg 66%
    19:00 +23°C° 0 mm 1 m/s 745 mmHg 71%
    20:00 +22°C° 0 mm 1 m/s 744 mmHg 75%
    21:00 +20°C° 0 mm 1 m/s 744 mmHg 79%
    22:00 +20°C° 0 mm 1 m/s 744 mmHg 81%
    23:00 +19°C° 0 mm 1 m/s 744 mmHg 82%

    Demain, 23 Juillet, Mardi

    Heure Température Précipitation Vent Pression Humidité
    00:00 +18°C° 0 mm 2 m/s 744 mmHg 84%
    01:00 +18°C° 0.5 mm 2 m/s 743 mmHg 88%
    02:00 +19°C° 0.5 mm 1 m/s 743 mmHg 91%
    03:00 +18°C° 0.5 mm 1 m/s 743 mmHg 95%
    04:00 +17°C° 0.5 mm 2 m/s 743 mmHg 95%
    05:00 +17°C° 0.5 mm 3 m/s 742 mmHg 95%
    06:00 +17°C° 0.5 mm 3 m/s 742 mmHg 96%
    07:00 +18°C° 0.2 mm 4 m/s 742 mmHg 93%
    08:00 +19°C° 0.2 mm 4 m/s 742 mmHg 90%
    09:00 +20°C° 0.2 mm 4 m/s 742 mmHg 87%
    10:00 +21°C° 0.5 mm 4 m/s 742 mmHg 84%
    11:00 +22°C° 0.5 mm 4 m/s 742 mmHg 81%
    12:00 +22°C° 0.5 mm 4 m/s 742 mmHg 78%
    13:00 +23°C° 0.1 mm 4 m/s 742 mmHg 75%
    14:00 +25°C° 0.1 mm 4 m/s 741 mmHg 71%
    15:00 +25°C° 0.1 mm 3 m/s 741 mmHg 68%
    16:00 +25°C° 0 mm 3 m/s 741 mmHg 70%
    17:00 +24°C° 0 mm 2 m/s 741 mmHg 71%
    18:00 +24°C° 0 mm 2 m/s 741 mmHg 73%
    19:00 +23°C° 0 mm 1 m/s 741 mmHg 77%
    20:00 +21°C° 0 mm 1 m/s 741 mmHg 81%
    21:00 +19°C° 0 mm 1 m/s 741 mmHg 86%
    22:00 +19°C° 0.1 mm 1 m/s 741 mmHg 87%
    23:00 +19°C° 0.1 mm 1 m/s 741 mmHg 88%

    Après-demain, 24 Juillet, Mercredi

    Heure Température Précipitation Vent Pression Humidité
    00:00 +18°C° 0.1 mm 1 m/s 741 mmHg 89%
    01:00 +18°C° 0.3 mm 1 m/s 741 mmHg 90%
    02:00 +17°C° 0.3 mm 2 m/s 741 mmHg 92%
    03:00 +17°C° 0.3 mm 2 m/s 741 mmHg 93%
    04:00 +17°C° 0.9 mm 2 m/s 741 mmHg 94%
    05:00 +18°C° 0.9 mm 1 m/s 741 mmHg 95%
    06:00 +18°C° 0.9 mm 1 m/s 741 mmHg 96%
    07:00 +18°C° 0.9 mm 1 m/s 741 mmHg 95%
    08:00 +17°C° 0.9 mm 2 m/s 741 mmHg 94%
    09:00 +17°C° 0.9 mm 2 m/s 741 mmHg 93%
    10:00 +18°C° 0.1 mm 3 m/s 741 mmHg 90%
    11:00 +18°C° 0.1 mm 3 m/s 741 mmHg 87%
    12:00 +19°C° 0.1 mm 4 m/s 741 mmHg 85%
    13:00 +19°C° 0.1 mm 3 m/s 741 mmHg 84%
    14:00 +18°C° 0.1 mm 3 m/s 741 mmHg 83%
    15:00 +18°C° 0.1 mm 2 m/s 741 mmHg 83%
    16:00 +18°C° 0.1 mm 2 m/s 741 mmHg 84%
    17:00 +18°C° 0.1 mm 2 m/s 741 mmHg 85%
    18:00 +18°C° 0.1 mm 2 m/s 741 mmHg 87%
    19:00 +17°C° 0.2 mm 2 m/s 741 mmHg 90%
    20:00 +17°C° 0.2 mm 2 m/s 741 mmHg 92%
    21:00 +16°C° 0.2 mm 2 m/s 741 mmHg 95%
    22:00 +16°C° 0.1 mm 2 m/s 741 mmHg 95%
    23:00 +16°C° 0.1 mm 1 m/s 741 mmHg 95%

    25 Juillet, Jeudi

    Heure Température Précipitation Vent Pression Humidité
    00:00 +15°C° 0.1 mm 1 m/s 741 mmHg 95%
    01:00 +15°C° 0.3 mm 1 m/s 741 mmHg 96%
    02:00 +16°C° 0.3 mm 1 m/s 741 mmHg 96%
    03:00 +16°C° 0.3 mm 1 m/s 741 mmHg 97%
    04:00 +16°C° 0.1 mm 1 m/s 741 mmHg 97%
    05:00 +16°C° 0.1 mm 1 m/s 741 mmHg 96%
    06:00 +16°C° 0.1 mm 1 m/s 741 mmHg 96%
    07:00 +18°C° 0 mm 1 m/s 741 mmHg 93%
    08:00 +19°C° 0 mm 1 m/s 742 mmHg 91%
    09:00 +20°C° 0 mm 1 m/s 742 mmHg 88%
    10:00 +19°C° 0.5 mm 2 m/s 742 mmHg 87%
    11:00 +20°C° 0.5 mm 3 m/s 742 mmHg 87%
    12:00 +20°C° 0.5 mm 4 m/s 742 mmHg 86%
    13:00 +20°C° 0.5 mm 4 m/s 742 mmHg 88%
    14:00 +19°C° 0.5 mm 5 m/s 742 mmHg 90%
    15:00 +19°C° 0.5 mm 5 m/s 742 mmHg 92%
    16:00 +19°C° 0.1 mm 5 m/s 742 mmHg 91%
    17:00 +19°C° 0.1 mm 5 m/s 742 mmHg 90%
    18:00 +19°C° 0.1 mm 5 m/s 742 mmHg 89%
    19:00 +18°C° 0 mm 4 m/s 742 mmHg 91%
    20:00 +18°C° 0 mm 4 m/s 742 mmHg 94%
    21:00 +17°C° 0 mm 3 m/s 742 mmHg 96%
    22:00 +17°C° 0 mm 3 m/s 743 mmHg 96%
    23:00 +17°C° 0 mm 3 m/s 743 mmHg 96%

    26 Juillet, Vendredi

    Heure Température Précipitation Vent Pression Humidité
    00:00 +16°C° 0 mm 3 m/s 743 mmHg 96%
    01:00 +17°C° 0 mm 3 m/s 742 mmHg 96%
    02:00 +17°C° 0 mm 4 m/s 742 mmHg 96%
    03:00 +17°C° 0 mm 4 m/s 742 mmHg 96%
    04:00 +17°C° 0 mm 4 m/s 742 mmHg 96%
    05:00 +17°C° 0 mm 4 m/s 742 mmHg 96%
    06:00 +17°C° 0 mm 5 m/s 742 mmHg 95%
    07:00 +17°C° 0 mm 5 m/s 742 mmHg 93%
    08:00 +19°C° 0 mm 5 m/s 742 mmHg 91%
    09:00 +20°C° 0 mm 5 m/s 742 mmHg 89%
    10:00 +20°C° 0.2 mm 4 m/s 742 mmHg 89%
    11:00 +20°C° 0.2 mm 3 m/s 742 mmHg 89%
    12:00 +20°C° 0.2 mm 3 m/s 742 mmHg 89%
    13:00 +21°C° 0.5 mm 3 m/s 742 mmHg 85%
    14:00 +22°C° 0.5 mm 3 m/s 742 mmHg 81%
    15:00 +24°C° 0.5 mm 3 m/s 742 mmHg 76%
    16:00 +22°C° 1.2 mm 3 m/s 742 mmHg 80%
    17:00 +21°C° 1.3 mm 3 m/s 742 mmHg 84%
    18:00 +21°C° 1.3 mm 3 m/s 741 mmHg 87%
    19:00 +20°C° 0 mm 3 m/s 742 mmHg 88%
    20:00 +20°C° 0 mm 3 m/s 742 mmHg 89%
    21:00 +19°C° 0 mm 3 m/s 742 mmHg 91%
    22:00 +19°C° 0.2 mm 3 m/s 742 mmHg 91%
    23:00 +19°C° 0.2 mm 3 m/s 741 mmHg 92%

    27 Juillet, Samedi

    Heure Température Précipitation Vent Pression Humidité
    00:00 +18°C° 0.2 mm 3 m/s 741 mmHg 93%
    01:00 +18°C° 0.2 mm 3 m/s 741 mmHg 94%
    02:00 +18°C° 0.2 mm 3 m/s 741 mmHg 95%
    03:00 +18°C° 0.2 mm 3 m/s 741 mmHg 95%
    04:00 +18°C° 0 mm 3 m/s 741 mmHg 96%
    05:00 +18°C° 0 mm 3 m/s 741 mmHg 96%
    06:00 +18°C° 0 mm 3 m/s 741 mmHg 97%
    07:00 +19°C° 0.1 mm 3 m/s 741 mmHg 93%
    08:00 +20°C° 0.1 mm 4 m/s 741 mmHg 90%
    09:00 +21°C° 0.1 mm 4 m/s 741 mmHg 86%
    10:00 +22°C° 1 mm 4 m/s 741 mmHg 82%
    11:00 +25°C° 1 mm 5 m/s 741 mmHg 77%
    12:00 +26°C° 1 mm 5 m/s 741 mmHg 73%
    13:00 +26°C° 1 mm 6 m/s 741 mmHg 72%
    14:00 +26°C° 1 mm 6 m/s 741 mmHg 72%
    15:00 +26°C° 1 mm 6 m/s 741 mmHg 71%
    16:00 +26°C° 0.5 mm 5 m/s 740 mmHg 74%
    17:00 +26°C° 0.5 mm 5 m/s 740 mmHg 77%
    18:00 +25°C° 0.5 mm 4 m/s 740 mmHg 80%
    19:00 +23°C° 0.3 mm 4 m/s 740 mmHg 82%
    20:00 +22°C° 0.3 mm 3 m/s 740 mmHg 85%
    21:00 +20°C° 0.3 mm 3 m/s 740 mmHg 87%
    22:00 +20°C° 0 mm 3 m/s 740 mmHg 89%
    23:00 +20°C° 0 mm 3 m/s 740 mmHg 91%
    Voir plus